Wetbulb
70.69 73.31 74.58 74.40 73.68 73.30 72.90 71.69 71.30 70.46 69.95 69.16 68.47 67.99 67.56 66.82 66.19 66.00 65.84 65.66 65.64 65.80 65.79 66.00 66.24 66.03 66.40 66.52 66.71 67.22 67.61 68.32 69.78 70.92 71.62 73.03 72.99 73.26 73.92 74.12 75.37 75.25 75.54
71.09 73.22 74.49 74.26 73.81 73.63 73.39 72.53 72.11 71.72 71.12 69.92 69.11 68.57 67.80 67.21 66.77 66.71 66.36 66.48 66.62 66.78 66.97 67.26 67.58 67.58 67.19 67.17 67.40 67.37 67.96 68.00 68.39 69.78 70.41 71.57 73.62 73.89 73.76 74.48 74.63 74.69 74.61
71.03 73.15 73.45 74.19 74.14 74.13 73.66 73.23 72.81 72.32 71.36 70.45 69.71 69.18 68.57 67.80 67.34 67.07 67.05 67.29 67.74 67.93 68.12 68.65 68.95 68.90 68.47 68.09 67.65 67.82 67.82 68.07 68.52 68.85 69.31 69.91 73.08 74.14 74.08 74.53 74.20 74.04 74.39
71.62 73.95 72.28 74.52 74.26 74.44 74.01 73.42 73.15 72.82 71.76 71.00 70.35 69.73 69.15 68.94 68.48 68.28 68.17 68.30 68.90 69.17 69.11 69.25 69.78 70.38 69.98 69.51 68.85 68.25 68.19 68.53 68.96 69.12 67.61 64.34 67.22 74.99 74.21 73.89 74.35 73.85 74.09
71.24 74.16 73.51 74.49 74.14 74.44 74.34 73.62 73.40 73.02 72.67 71.71 70.76 70.32 70.01 69.74 69.68 69.71 69.20 69.04 69.21 70.05 70.09 70.03 69.90 70.72 70.94 70.27 69.90 69.27 68.74 68.52 69.12 69.02 67.14 65.34 68.00 73.39 73.46 73.42 74.17 73.81 74.39
70.58 73.89 74.88 74.24 74.12 74.39 74.42 74.09 73.67 73.32 73.12 72.42 71.28 70.86 70.61 70.63 71.35 71.33 69.90 69.75 70.00 70.39 70.86 70.77 70.64 70.53 70.70 70.22 70.21 70.13 69.81 69.11 68.58 67.59 67.26 68.30 68.74 72.16 72.11 72.75 73.12 74.59 73.79
70.06 72.23 75.16 74.41 74.44 74.32 74.64 74.37 73.99 73.62 73.49 73.15 72.22 71.58 71.25 71.80 71.88 71.56 70.90 71.00 71.05 71.32 71.22 70.77 71.29 70.56 70.26 69.89 69.48 69.71 69.76 70.01 69.56 69.50 67.55 68.84 68.96 70.49 70.23 71.59 73.00 73.48 73.69
69.85 71.12 73.46 75.00 74.51 74.39 74.46 74.27 74.06 73.81 73.68 73.49 73.22 72.82 72.28 72.25 72.55 72.11 71.34 71.17 71.07 70.79 70.59 70.44 70.16 69.97 69.80 69.43 69.39 69.14 69.00 69.04 69.35 69.31 69.78 70.23 70.09 69.25 68.92 70.87 72.75 72.82 73.47
69.59 70.18 71.07 75.60 75.12 74.65 74.48 74.24 74.06 74.02 74.01 73.79 73.57 73.16 72.94 72.40 72.63 71.66 70.65 69.92 69.34 69.00 68.95 69.10 69.39 69.69 69.50 69.16 68.88 68.86 68.81 69.12 68.77 68.34 68.54 69.87 70.91 69.31 68.09 70.62 72.30 72.58 72.97
69.62 69.44 70.78 72.86 75.35 74.45 73.58 74.40 74.30 74.14 74.03 73.65 73.36 73.13 72.83 71.91 71.76 70.82 68.76 68.10 67.86 67.33 67.40 67.58 68.01 68.71 69.03 69.40 69.08 68.81 68.73 68.73 68.49 68.22 68.86 69.63 70.47 68.67 67.77 69.57 72.02 72.16 72.35
67.47 70.01 70.29 70.70 73.11 73.91 72.36 73.32 74.43 73.88 73.72 73.59 72.85 72.59 72.18 70.30 69.56 70.14 70.17 67.02 66.50 66.16 66.07 66.61 67.04 67.41 68.06 68.57 68.74 68.62 68.78 67.45 67.19 67.42 67.18 71.33 69.93 69.19 68.68 68.62 70.36 71.49 71.98
66.70 68.35 69.74 73.48 72.12 73.22 71.31 73.20 74.12 73.01 72.74 72.20 71.27 70.68 71.69 70.46 70.15 69.58 69.59 66.54 66.31 66.24 66.36 66.95 67.75 68.31 68.28 67.72 67.97 68.97 67.68 66.82 66.27 66.77 67.20 71.03 69.69 68.65 68.17 69.37 69.47 70.87 71.46
66.34 68.09 69.68 74.15 75.30 74.00 72.27 71.92 73.61 72.56 71.97 71.62 71.48 72.16 72.50 70.15 70.92 70.11 69.25 69.28 68.70 67.26 68.37 67.55 67.85 67.84 67.26 67.85 67.07 67.40 67.43 66.66 66.70 67.20 69.50 69.71 69.11 68.55 67.84 69.11 69.58 70.35 71.14
66.48 66.92 70.35 71.70 74.91 76.10 72.73 70.67 71.94 71.93 71.81 70.86 71.37 72.69 70.98 69.26 70.30 70.00 68.68 68.88 70.25 68.13 68.33 67.60 66.90 69.07 67.42 67.60 67.10 67.07 67.73 66.71 65.94 66.51 68.40 68.37 68.15 67.61 67.58 69.03 69.53 70.04 71.07
66.82 67.65 68.94 72.79 75.10 75.68 76.01 71.83 72.59 72.30 70.65 71.74 70.79 70.98 70.34 69.43 70.60 69.75 70.40 68.72 68.56 67.93 67.93 68.54 68.16 68.13 68.55 67.05 66.16 66.74 66.44 66.10 67.26 66.85 67.01 68.14 67.32 67.27 67.90 69.06 69.34 69.93 71.02
67.34 68.12 69.10 72.56 75.39 75.62 74.58 76.03 74.50 74.79 72.10 70.61 69.94 69.59 70.55 70.24 70.37 68.98 69.06 68.86 70.08 69.81 68.22 67.80 67.17 67.12 66.14 65.14 66.54 66.68 67.04 65.83 65.73 67.00 66.61 67.26 68.04 67.82 67.97 69.01 69.21 69.96 70.76
67.61 69.16 72.93 74.52 75.36 75.72 75.78 75.55 73.41 71.81 71.01 69.88 69.22 71.15 70.31 70.94 70.95 69.90 68.65 70.28 70.22 69.57 69.08 67.88 68.07 67.80 65.85 65.90 65.98 65.27 66.30 66.97 66.89 67.46 67.61 65.74 67.26 68.41 69.28 68.92 68.88 70.00 70.16
69.59 70.73 72.93 70.80 74.49 75.80 75.55 74.66 72.98 71.18 70.33 68.92 68.82 69.55 70.78 70.60 70.34 69.34 69.04 69.81 70.69 69.78 69.80 68.45 65.86 65.81 66.24 63.79 64.43 65.86 65.94 66.23 66.46 67.15 65.51 66.91 66.50 67.83 68.23 69.47 69.33 69.91 69.64
70.84 72.68 72.22 74.16 73.31 75.32 75.94 73.81 73.43 74.30 69.95 68.76 68.84 69.22 69.90 69.97 69.86 70.00 69.39 69.79 70.23 69.54 67.92 66.85 66.33 67.79 65.68 64.60 64.73 66.51 65.92 65.81 65.43 65.59 66.97 66.23 67.73 67.44 67.42 69.01 70.22 70.14 70.23
71.78 73.63 73.91 73.25 74.70 75.71 74.05 74.52 71.38 69.69 69.33 68.81 68.86 68.72 69.56 69.74 69.42 69.96 69.44 69.06 69.37 67.70 66.42 66.76 66.75 66.32 66.46 66.31 63.84 65.05 65.88 65.78 65.09 65.60 66.53 65.94 66.60 67.24 68.83 69.36 68.85 68.30 69.87
69.77 71.01 72.75 72.19 74.09 73.38 71.91 70.29 69.04 67.39 68.60 68.02 68.57 69.58 69.50 69.71 69.99 69.56 68.63 67.75 67.87 68.04 67.24 66.73 65.89 63.23 64.91 66.59 64.90 63.85 65.31 65.21 65.88 64.81 64.80 65.44 65.86 67.11 68.64 68.39 69.71 70.00 69.93
68.82 69.93 70.18 70.72 73.78 73.59 72.25 71.52 70.02 69.57 67.96 68.06 68.28 69.66 69.81 69.41 69.26 68.86 68.11 67.10 67.51 67.75 66.12 65.20 65.09 63.94 64.17 66.38 62.62 62.90 59.17 61.79 63.44 64.15 64.56 64.89 66.64 67.02 67.38 68.18 69.06 70.92 71.69
68.02 68.73 68.93 69.94 72.11 73.43 73.09 71.38 70.37 69.45 68.76 67.26 67.04 67.53 68.76 68.54 68.27 68.19 67.74 67.04 66.90 66.86 65.60 66.17 65.61 63.99 63.08 64.09 64.53 63.43 58.79 55.86 59.09 63.57 64.69 65.22 67.10 67.83 68.69 68.97 69.69 70.29 71.13
67.75 68.89 69.74 70.63 71.56 71.71 72.24 70.30 71.43 66.93 64.99 65.81 67.84 67.45 67.47 67.48 66.91 66.83 67.18 66.78 66.95 66.66 66.07 65.59 65.77 64.76 63.96 62.57 64.88 65.97 65.10 64.38 58.72 57.63 63.09 66.38 68.33 68.31 68.94 69.26 71.17 70.73 70.75
67.95 68.61 70.18 70.23 70.25 70.63 71.25 71.27 67.36 68.42 66.19 66.50 66.56 66.72 67.78 68.27 66.75 65.66 66.57 66.15 66.24 67.28 65.94 65.65 64.50 64.36 66.02 64.99 64.42 64.18 63.72 62.82 61.69 61.92 57.96 61.50 67.08 68.94 68.59 71.16 70.09 70.44 70.21
68.04 68.89 68.96 68.36 68.66 68.74 68.54 68.60 69.10 67.29 66.17 65.19 65.49 65.48 66.11 66.55 66.04 65.91 65.64 65.97 66.37 66.29 65.66 66.31 65.31 64.97 65.99 66.06 66.99 64.32 62.21 61.43 60.78 59.19 63.29 63.91 63.56 65.91 69.23 69.67 69.08 66.83 67.54
MSLP
1004.43 1006.89 1008.25 1008.77 1009.30 1009.49 1009.96 1010.42 1010.69 1011.23 1011.54 1011.85 1012.04 1012.28 1012.46 1012.70 1012.98 1013.20 1013.35 1013.43 1013.58 1013.72 1013.89 1013.94 1013.97 1013.96 1014.05 1013.88 1013.87 1013.86 1013.88 1014.00 1013.85 1013.78 1013.70 1013.66 1013.58 1013.71 1013.75 1013.80 1013.75 1013.48 1013.98
1004.35 1006.69 1008.19 1008.75 1009.25 1009.64 1010.13 1010.47 1010.86 1011.24 1011.60 1011.91 1012.10 1012.28 1012.60 1012.79 1013.01 1013.20 1013.41 1013.54 1013.54 1013.63 1013.76 1013.95 1014.05 1014.10 1013.99 1014.00 1013.90 1013.92 1013.92 1013.91 1013.88 1013.89 1013.76 1013.61 1013.43 1013.56 1013.71 1013.78 1013.80 1013.64 1014.02
1004.56 1006.56 1008.02 1008.74 1009.20 1009.64 1010.01 1010.42 1010.81 1011.28 1011.58 1011.82 1012.02 1012.23 1012.45 1012.66 1012.91 1013.11 1013.26 1013.48 1013.64 1013.63 1013.60 1013.75 1013.85 1013.96 1013.97 1013.94 1013.90 1013.89 1013.91 1013.88 1013.88 1013.80 1013.77 1013.24 1012.33 1013.11 1013.36 1013.70 1013.69 1014.01 1014.15
1004.72 1006.29 1007.33 1008.58 1009.13 1009.59 1010.04 1010.34 1010.68 1011.12 1011.45 1011.68 1011.92 1012.12 1012.29 1012.53 1012.73 1012.99 1013.21 1013.32 1013.51 1013.56 1013.56 1013.56 1013.62 1013.71 1013.78 1013.78 1013.78 1013.83 1013.86 1013.79 1013.84 1013.86 1013.36 1012.66 1012.04 1012.59 1013.04 1013.54 1013.80 1014.09 1014.33
1004.80 1005.97 1006.84 1008.17 1008.96 1009.43 1009.92 1010.29 1010.57 1010.86 1011.30 1011.57 1011.83 1012.04 1012.21 1012.39 1012.66 1012.80 1012.95 1013.12 1013.24 1013.35 1013.38 1013.35 1013.39 1013.44 1013.50 1013.63 1013.62 1013.69 1013.75 1013.85 1013.82 1013.71 1012.82 1012.21 1011.85 1012.29 1012.94 1013.40 1013.73 1014.06 1014.42
1004.75 1005.45 1006.59 1007.86 1008.59 1009.12 1009.67 1010.05 1010.32 1010.63 1011.12 1011.47 1011.62 1011.85 1012.06 1012.23 1012.48 1012.64 1012.74 1012.83 1012.96 1013.07 1013.08 1013.11 1013.13 1013.20 1013.27 1013.41 1013.49 1013.56 1013.61 1013.74 1013.78 1013.12 1012.50 1012.04 1012.47 1013.01 1013.39 1013.44 1013.76 1013.71 1014.24
1004.67 1005.43 1006.55 1007.78 1008.42 1008.85 1009.45 1009.77 1010.21 1010.38 1010.81 1011.30 1011.53 1011.70 1011.90 1012.11 1012.29 1012.42 1012.57 1012.64 1012.69 1012.76 1012.81 1012.84 1012.81 1012.98 1013.14 1013.14 1013.20 1013.35 1013.57 1013.62 1013.44 1012.43 1012.08 1012.02 1012.27 1012.92 1013.48 1013.65 1013.88 1013.88 1014.10
1003.80 1004.94 1005.55 1007.52 1008.05 1008.68 1009.21 1009.54 1010.02 1010.21 1010.57 1011.05 1011.42 1011.65 1011.78 1011.93 1012.11 1012.22 1012.33 1012.41 1012.47 1012.53 1012.58 1012.64 1012.65 1012.69 1012.87 1012.96 1013.01 1013.14 1013.33 1013.40 1012.99 1012.55 1011.95 1011.92 1012.30 1012.91 1013.33 1013.73 1013.85 1013.95 1013.92
1003.05 1004.35 1005.06 1006.73 1007.74 1008.57 1009.14 1009.46 1009.77 1010.00 1010.28 1010.72 1011.18 1011.50 1011.65 1011.76 1011.92 1012.05 1012.22 1012.23 1012.32 1012.42 1012.46 1012.38 1012.39 1012.48 1012.62 1012.76 1012.84 1012.95 1013.06 1013.15 1012.93 1012.26 1012.35 1012.45 1012.78 1012.89 1013.16 1013.65 1013.88 1013.90 1014.06
1002.48 1003.19 1004.57 1005.42 1006.95 1007.95 1008.54 1009.35 1009.64 1009.89 1010.18 1010.44 1010.84 1011.22 1011.47 1011.61 1011.71 1011.84 1011.94 1011.89 1012.07 1012.26 1012.36 1012.30 1012.18 1012.25 1012.34 1012.44 1012.54 1012.65 1012.76 1012.86 1012.62 1012.04 1011.53 1011.93 1012.48 1013.09 1013.30 1013.58 1013.75 1013.88 1014.02
1001.78 1002.37 1003.57 1004.50 1005.76 1007.01 1007.40 1008.38 1009.51 1009.82 1010.10 1010.36 1010.69 1010.98 1011.18 1011.10 1010.73 1010.93 1010.83 1011.41 1011.78 1011.99 1012.07 1012.08 1012.01 1012.01 1012.08 1012.08 1012.05 1012.16 1012.34 1012.01 1011.62 1011.38 1011.13 1011.41 1012.31 1012.75 1013.21 1013.47 1013.68 1013.80 1013.83
1000.91 1001.75 1002.68 1004.09 1005.03 1006.01 1006.43 1006.95 1008.37 1008.94 1009.51 1009.77 1009.97 1010.11 1010.35 1010.51 1010.37 1010.33 1010.73 1011.22 1011.34 1011.54 1011.65 1011.60 1011.60 1011.65 1011.74 1010.99 1010.38 1011.28 1011.51 1011.13 1011.01 1010.53 1010.51 1011.23 1011.85 1012.62 1012.92 1013.30 1013.49 1013.54 1013.68
1000.22 1000.57 1001.75 1003.09 1004.29 1005.10 1005.78 1006.10 1007.31 1007.95 1008.42 1008.84 1009.31 1009.51 1009.66 1009.82 1009.76 1009.77 1009.76 1009.65 1010.46 1010.74 1010.53 1010.59 1010.83 1010.92 1010.30 1010.24 1009.81 1010.62 1010.15 1010.23 1010.33 1010.56 1010.70 1011.54 1011.84 1012.19 1012.54 1013.11 1013.29 1013.31 1013.42
999.61 1000.07 1000.91 1002.34 1003.78 1004.66 1005.01 1005.44 1006.17 1006.92 1007.30 1007.88 1008.41 1009.13 1009.47 1009.61 1009.64 1009.78 1009.52 1009.21 1009.39 1009.65 1009.54 1009.70 1009.58 1009.87 1010.04 1010.17 1010.09 1009.85 1009.80 1009.63 1009.52 1010.07 1010.65 1011.58 1011.92 1011.82 1012.28 1012.90 1013.01 1013.01 1013.19
999.67 999.98 1000.25 1001.53 1003.07 1004.18 1004.96 1004.88 1005.55 1006.08 1006.65 1007.19 1007.73 1008.35 1009.03 1008.96 1008.96 1009.08 1009.15 1009.43 1009.67 1009.55 1009.63 1009.65 1009.76 1010.03 1010.22 1010.31 1010.13 1009.99 1010.01 1009.94 1010.07 1010.00 1010.22 1011.29 1011.73 1011.81 1012.14 1012.64 1012.69 1012.76 1012.83
999.35 999.65 1000.09 1000.85 1002.30 1003.59 1004.43 1004.64 1005.19 1005.60 1006.03 1006.90 1007.16 1007.61 1008.32 1008.63 1008.64 1008.71 1009.03 1009.42 1009.66 1009.70 1009.48 1009.31 1009.72 1009.90 1010.16 1009.98 1009.96 1009.95 1010.10 1010.17 1010.18 1010.41 1010.37 1011.15 1011.44 1011.45 1011.91 1012.26 1012.38 1012.47 1012.52
999.06 999.29 999.89 1000.31 1001.63 1002.90 1003.95 1004.42 1004.66 1005.03 1005.77 1006.47 1006.89 1007.34 1007.84 1008.29 1008.41 1008.72 1008.80 1009.19 1009.60 1009.61 1009.63 1009.85 1009.70 1009.82 1009.80 1009.57 1009.40 1009.69 1009.67 1010.06 1010.13 1010.25 1010.30 1010.64 1010.80 1010.99 1011.26 1011.68 1011.94 1012.02 1012.09
998.76 999.16 999.56 999.77 1000.98 1002.31 1003.30 1003.96 1004.42 1004.62 1005.37 1005.68 1006.16 1006.69 1007.57 1007.98 1008.10 1008.41 1008.61 1009.10 1009.13 1009.30 1009.55 1009.73 1009.88 1009.66 1009.43 1009.68 1009.36 1009.39 1009.44 1009.75 1009.80 1010.10 1010.40 1009.89 1009.76 1010.07 1010.74 1011.09 1011.32 1011.60 1011.77
998.33 998.74 999.11 999.65 1000.40 1001.98 1003.04 1003.59 1004.31 1004.59 1005.06 1005.27 1005.51 1006.17 1006.66 1007.24 1007.40 1007.91 1008.13 1008.50 1008.70 1008.99 1009.10 1009.23 1009.53 1009.69 1009.42 1009.28 1009.25 1009.03 1009.31 1009.29 1009.69 1009.57 1009.47 1009.64 1009.70 1009.91 1009.66 1010.26 1010.69 1011.05 1011.29
997.58 998.28 998.97 999.52 1000.55 1001.90 1002.89 1003.56 1004.02 1004.32 1004.98 1005.02 1005.37 1005.87 1006.31 1006.76 1006.96 1007.59 1007.78 1008.33 1008.52 1008.57 1008.77 1009.04 1009.10 1009.20 1009.21 1009.28 1008.96 1009.35 1009.50 1009.25 1009.42 1009.19 1009.21 1009.45 1009.21 1009.55 1009.40 1009.69 1010.14 1010.35 1010.95
997.12 997.99 998.98 999.84 1000.77 1001.73 1002.68 1003.16 1003.38 1003.75 1004.45 1004.83 1005.21 1005.77 1006.39 1006.57 1006.70 1007.27 1007.71 1008.13 1008.22 1008.21 1008.40 1008.52 1008.79 1008.99 1009.02 1009.19 1009.28 1009.51 1009.60 1009.22 1009.13 1008.91 1009.18 1008.75 1008.84 1009.03 1008.85 1009.04 1008.95 1009.06 1010.44
997.29 998.48 999.40 1000.11 1000.63 1001.55 1002.11 1002.70 1002.97 1003.49 1004.02 1004.33 1004.77 1005.43 1006.09 1006.29 1006.50 1007.14 1007.59 1007.98 1007.99 1008.09 1008.10 1008.16 1008.49 1008.82 1009.07 1009.13 1009.21 1009.25 1009.33 1009.51 1008.81 1008.63 1008.65 1008.60 1008.44 1008.74 1008.92 1009.03 1008.68 1008.65 1009.77
997.67 998.74 999.55 1000.15 1000.90 1001.59 1001.91 1002.48 1003.17 1003.78 1003.93 1004.44 1004.78 1005.33 1005.57 1006.08 1006.46 1006.91 1007.27 1007.62 1007.54 1007.66 1007.65 1008.08 1008.38 1008.57 1008.69 1008.93 1008.96 1008.80 1008.67 1008.11 1007.96 1008.21 1008.35 1008.20 1008.49 1008.92 1008.72 1008.69 1008.42 1009.07 1009.99
997.90 998.83 999.63 1000.42 1001.17 1001.44 1002.08 1002.70 1003.25 1003.53 1003.66 1003.71 1004.30 1004.69 1005.45 1006.04 1006.63 1006.83 1007.21 1007.28 1007.42 1007.41 1007.75 1007.86 1007.92 1008.06 1008.20 1008.26 1008.71 1008.63 1008.21 1007.67 1007.38 1007.84 1008.19 1008.58 1008.75 1008.94 1008.92 1009.06 1009.16 1009.36 1009.84
998.04 998.95 999.88 1000.78 1001.39 1001.80 1002.29 1002.72 1003.30 1003.25 1003.67 1004.06 1004.49 1005.25 1005.96 1006.36 1006.68 1006.79 1007.01 1007.13 1007.28 1007.56 1007.50 1007.47 1007.56 1007.74 1008.00 1008.08 1008.11 1007.78 1007.33 1006.89 1007.23 1007.36 1007.21 1008.18 1008.69 1008.69 1008.65 1009.01 1009.41 1009.57 1009.92
998.26 999.37 1000.28 1000.95 1001.64 1002.13 1002.45 1002.98 1003.16 1003.63 1003.82 1004.07 1004.68 1005.06 1005.81 1006.34 1006.68 1006.88 1006.63 1006.84 1006.94 1007.13 1007.28 1007.12 1007.14 1007.57 1007.77 1007.77 1007.85 1007.09 1006.78 1006.83 1006.31 1006.37 1006.78 1007.52 1007.90 1008.42 1008.76 1009.15 1009.54 1010.03 1010.49
Wind_Speed
14 21 20 20 19 19 17 17 16 15 14 13 13 11 11 10 8 7 6 5 4 3 2 1 2 2 3 2 2 2 2 2 2 3 3 4 3 5 4 5 8 9 14
16 22 21 20 19 18 17 16 15 14 13 13 12 11 9 8 8 7 6 5 5 4 3 3 3 4 4 4 4 4 3 3 2 4 5 8 7 8 6 7 8 3 12
16 20 21 20 19 18 17 16 15 14 13 12 11 11 10 9 7 6 6 5 5 5 5 5 5 5 5 5 5 5 5 5 5 6 7 9 11 12 9 8 9 4 12
17 18 21 20 19 18 16 16 15 14 14 13 12 10 9 8 7 6 6 6 7 7 7 7 7 8 8 7 6 6 6 6 6 7 9 11 13 15 10 10 8 5 12
15 18 18 22 19 18 17 16 15 15 13 13 12 10 9 8 9 9 8 8 9 10 9 9 10 10 9 9 8 8 8 8 8 9 11 11 5 8 8 7 9 9 14
15 17 18 23 20 19 18 17 16 15 14 13 12 11 10 10 9 9 10 10 11 12 13 12 12 12 9 9 8 9 9 10 9 12 10 5 5 10 3 2 7 7 15
13 14 18 22 20 19 18 18 17 16 14 13 12 11 11 10 11 11 11 12 13 14 15 15 14 13 11 9 7 7 8 11 11 11 9 6 8 9 3 2 7 7 15
13 14 17 20 21 19 18 18 16 15 14 13 12 11 11 11 12 12 13 12 12 12 12 12 13 11 10 9 8 7 7 8 11 10 11 7 10 8 3 4 8 9 15
12 15 13 16 18 18 16 15 16 15 14 13 11 10 10 11 12 11 8 8 9 10 11 12 11 10 9 10 9 8 8 8 10 9 5 5 6 6 6 5 8 9 14
12 14 14 14 16 16 16 15 14 14 13 12 11 10 10 10 11 11 9 13 12 8 9 10 11 12 11 10 10 10 10 10 11 12 9 8 11 4 4 5 8 8 13
9 11 13 15 15 16 16 16 14 15 14 11 11 11 8 9 11 13 14 9 6 7 8 9 10 11 13 14 14 14 13 9 12 10 9 13 11 8 5 7 8 7 11
13 13 14 12 14 16 13 15 15 14 11 10 11 10 9 9 9 6 6 7 9 11 11 12 12 12 11 11 12 17 9 12 11 11 4 16 14 7 4 7 10 9 10
15 11 14 14 13 14 13 10 8 8 9 9 12 10 8 6 7 6 6 7 9 14 8 13 12 10 9 5 6 3 13 12 9 6 2 12 11 9 5 9 10 10 10
14 12 16 16 14 13 11 11 10 10 9 8 10 11 7 6 8 7 6 7 4 5 6 6 5 1 4 6 9 9 10 4 7 7 4 8 9 7 6 10 11 11 10
15 14 11 17 16 13 13 11 10 10 9 9 8 9 8 8 7 7 5 5 7 5 7 3 4 0 3 5 9 7 9 7 4 6 4 9 8 9 9 12 12 12 10
15 13 12 18 16 16 14 11 10 7 9 9 8 8 11 8 6 7 6 6 7 8 8 6 4 5 4 5 6 5 8 6 7 5 7 8 16 13 13 14 13 12 11
13 12 10 14 17 17 16 14 11 11 10 10 8 8 8 8 8 8 8 5 7 4 7 5 7 5 7 7 5 5 6 6 4 2 2 6 13 15 16 16 14 13 12
11 11 11 13 18 17 16 13 11 11 11 10 8 8 10 10 9 8 8 7 7 6 6 7 5 7 9 7 5 3 7 5 8 8 7 9 8 7 13 16 14 14 12
12 10 12 14 17 17 15 13 12 10 10 9 7 7 8 9 9 7 7 7 8 6 7 7 8 8 8 6 4 1 6 6 6 10 12 9 7 5 7 17 15 13 11
11 9 10 12 13 16 13 10 11 10 9 8 7 7 7 7 6 4 6 7 7 6 6 6 9 7 6 6 6 3 7 8 5 7 5 6 9 10 10 11 10 10 9
9 9 11 12 13 13 12 13 12 11 9 8 6 6 6 7 5 5 5 7 6 6 7 8 7 5 6 6 4 4 4 7 6 8 6 9 6 8 9 9 8 8 8
7 10 13 14 14 13 11 10 9 8 9 7 7 6 5 6 6 3 5 6 8 6 8 8 8 6 4 5 5 5 5 5 8 9 7 3 8 5 8 11 9 5 7
10 12 14 14 15 13 12 8 6 5 4 4 5 6 8 6 6 4 5 6 6 6 3 6 7 9 6 6 10 4 4 6 9 5 8 9 7 7 7 9 7 6 9
11 13 14 15 16 13 12 10 10 8 7 4 1 2 3 2 3 2 4 6 6 4 3 6 7 7 9 7 6 8 9 4 5 7 4 6 7 9 10 7 6 8 11
12 13 15 17 15 14 11 10 9 6 5 3 2 2 3 1 3 6 5 5 6 2 4 4 5 5 5 6 6 8 9 6 6 6 9 9 6 7 6 5 5 7 11
14 15 16 18 15 14 12 11 7 5 2 2 3 2 4 3 3 4 5 3 1 3 3 5 4 6 4 5 5 7 5 6 4 4 3 7 7 6 4 5 8 6 7
Wind_Direction
131 150 161 161 164 161 164 159 155 161 161 162 160 159 157 155 156 156 156 155 155 156 177 270 277 269 266 268 278 283 292 293 343 344 329 314 278 243 213 197 182 200 141
137 154 163 167 168 165 164 162 162 165 167 168 166 164 165 167 169 171 177 181 184 195 202 220 257 273 268 267 261 253 262 266 281 296 295 269 235 216 230 225 225 157 152
144 154 169 172 171 168 168 166 166 169 173 174 175 176 178 180 189 197 200 211 219 226 229 232 231 247 260 260 258 262 254 258 268 273 279 265 231 189 202 226 232 205 157
145 158 176 175 173 171 172 172 170 174 179 181 185 188 190 197 206 222 237 244 244 246 252 255 253 238 233 244 255 255 262 258 259 271 259 239 260 156 186 219 225 208 163
155 165 179 170 174 175 178 178 176 178 184 188 195 199 207 214 226 232 242 254 259 260 259 260 262 259 241 232 234 245 250 256 256 263 254 259 271 142 161 211 215 188 171
170 174 158 166 177 180 184 182 183 181 188 196 200 209 221 233 240 242 250 256 264 264 262 262 261 262 246 244 248 251 255 254 257 253 248 233 263 77 97 239 254 205 185
177 183 154 167 179 184 189 185 188 186 189 200 207 214 227 239 247 253 260 263 261 263 265 265 265 263 260 259 253 247 258 261 265 260 256 230 235 151 116 302 254 230 186
185 182 161 171 178 189 193 189 192 189 190 199 211 219 229 242 253 259 263 266 270 271 273 280 281 275 261 259 258 255 257 262 256 262 277 301 128 133 103 289 270 245 186
207 178 191 175 186 190 196 196 193 191 191 196 207 219 231 247 265 275 269 267 266 269 275 276 276 274 265 252 252 253 257 251 263 263 239 267 132 156 163 247 264 239 197
214 189 202 182 183 199 197 201 198 193 194 194 201 215 234 255 260 247 243 238 248 260 269 272 273 269 260 252 250 244 244 245 246 259 223 223 156 173 197 239 269 246 204
260 204 197 195 187 197 201 191 193 199 199 196 206 213 219 249 266 221 222 144 181 240 255 260 262 261 258 256 247 236 235 243 241 226 245 157 150 167 201 249 264 257 216
227 221 206 198 193 194 212 192 195 199 205 207 217 224 213 243 260 314 328 181 201 220 232 235 238 234 237 245 213 220 223 233 236 245 249 141 147 173 195 251 255 266 238
279 211 216 178 188 202 204 188 187 200 201 203 218 221 230 250 251 240 239 218 212 201 233 201 220 229 227 254 279 222 217 210 228 257 118 137 149 169 194 251 251 258 247
258 256 195 195 184 195 206 200 194 198 194 203 201 214 228 233 225 235 262 281 230 249 261 270 268 45 307 269 283 259 286 271 195 215 198 171 170 166 203 246 249 253 249
262 265 239 186 177 188 217 200 199 204 192 201 212 198 222 239 237 254 258 290 290 277 279 279 298 99 240 255 266 238 257 290 299 212 220 165 183 186 210 238 245 249 245
261 258 242 183 177 184 200 223 185 198 188 203 214 218 199 238 242 257 254 238 239 253 261 269 245 263 266 246 226 230 215 243 265 192 184 195 196 188 209 229 235 240 240
259 251 235 190 176 183 196 208 190 189 209 194 215 212 223 221 235 255 268 263 260 260 251 256 281 269 259 256 221 212 203 227 187 175 238 241 194 196 202 212 224 233 232
260 257 210 205 178 181 189 199 199 197 193 203 204 209 202 225 240 265 259 260 258 247 236 239 244 248 254 265 238 151 227 195 211 187 230 234 244 185 202 206 209 224 227
250 240 224 203 188 181 192 196 197 196 193 204 202 211 214 227 239 240 256 272 271 248 231 226 228 235 259 239 300 232 236 223 179 215 218 210 242 267 205 185 198 213 227
236 227 210 195 185 177 189 195 194 183 200 203 201 220 228 239 241 241 264 264 255 239 236 228 233 230 229 250 263 228 240 205 245 230 251 204 220 213 240 175 188 204 187
252 208 193 175 184 172 191 193 192 183 196 196 209 214 237 248 242 269 262 259 260 258 246 240 236 244 236 244 233 238 247 258 225 202 230 216 212 213 216 246 200 185 157
199 188 183 183 174 177 182 195 188 192 184 196 198 198 223 262 275 264 239 246 250 249 234 229 227 227 233 222 204 206 195 216 236 226 214 214 197 223 195 235 217 198 147
186 180 179 175 166 182 172 171 150 168 151 172 200 213 211 220 260 238 253 250 254 243 261 239 233 226 225 211 217 216 179 212 186 195 215 213 184 225 224 230 207 200 170
176 168 162 160 163 164 154 154 162 178 196 183 201 33 347 202 303 273 258 233 225 243 231 238 226 225 218 214 200 225 252 238 197 178 204 240 215 210 208 223 215 206 172
153 155 148 149 160 140 170 158 172 204 154 175 183 110 206 196 259 264 198 207 219 198 242 226 216 198 219 204 206 214 207 217 210 239 172 197 210 224 212 199 178 168 155
149 145 147 151 143 158 149 146 195 138 131 167 196 272 127 202 213 254 209 208 141 225 232 224 175 186 207 210 211 251 211 230 242 196 160 178 187 186 178 171 149 135 133